[[{"header":{"parameterUnit":"m.s-1","parameterCategory":1,"la1":30.2991,"la2":30.254,"lo1":-89.0895,"lo2":-89.0444,"dy":0.0017,"dx":0.0017,"nx":28,"ny":28,"refTime":"2023-10-16T21:00:00:Z","depth":0,"parameterNumber":2,"parameterNumberName":"U-component_of_WINDS"},"data":[0,0,0,0,0,0,0,0,0,0,0,0,0,0,0,0,0,0,0,0,0,0,0,0,0,0,0,0,0,0,0,0,0,0,0,0,0,0,0,0,0,0,0,0,0,0,0,0,0,0,0,0,0,0,0,0,0,0,1.7436,1.7437,0,1.75,1.7501,1.7502,1.7469,1.7468,1.7466,1.7464,1.7531,1.7534,1.7538,0,0,0,0,0,0,0,0,0,0,0,0,0,1.7287,1.729,1.7436,1.7437,1.7438,1.75,1.7501,1.7502,1.747,1.7468,1.7466,1.7464,1.753,1.7534,1.7538,0,0,0,0,0,0,0,0,0,0,0,0,0,1.7352,1.7291,1.7436,1.7429,1.7429,1.75,1.7501,1.7502,1.747,1.7468,1.7465,1.7463,1.7529,1.7533,1.7538,1.762,0,0,1.7554,1.7556,0,0,0,0,0,0,0,0,1.7348,1.7357,1.7429,1.743,1.743,1.7474,1.7473,1.7542,1.7471,1.7455,1.7464,1.7461,1.7514,1.752,1.7538,1.7623,1.7626,1.7554,1.7557,1.7559,1.7561,0,0,0,0,0,0,0,1.7344,1.7354,1.7462,1.7431,1.7431,1.7423,1.743,1.7486,1.7498,1.7456,1.7454,1.7462,1.7514,1.7533,1.7539,1.7627,1.7554,1.7558,1.7562,1.7563,1.7781,1.7784,0,0,0,0,0,0,1.7339,1.7351,1.7459,1.7463,1.7382,1.7428,1.7435,1.7463,1.7497,1.75,1.7464,1.746,1.7526,1.7533,1.7541,1.7638,1.7559,1.7564,1.7567,1.7778,1.7782,1.7785,0,0,0,0,0,0,1.7336,1.7349,1.7457,1.7407,1.742,1.7433,1.7464,1.7465,1.7484,1.7503,1.7505,1.7481,1.7524,1.7534,1.76,1.764,1.7566,1.7571,1.7775,1.7779,1.7783,1.7832,0,0,0,0,0,0,1.7332,1.7349,1.7379,1.7408,1.7423,1.7514,1.7467,1.7468,1.7493,1.7488,1.752,1.7523,1.7523,1.7593,1.7605,1.7645,1.7575,1.7771,1.7777,1.7782,1.7827,1.7837,1.7846,0,0,0,0,0,1.7327,1.7391,1.7381,1.7394,1.7461,1.7517,1.7525,1.7524,1.7496,1.7527,1.7539,1.7522,1.7634,1.76,1.7613,1.7656,1.7769,1.7775,1.7781,1.7823,1.7835,1.7846,0,0,0,0,0,0,1.7367,1.7394,1.7384,1.7459,1.7486,1.7511,1.755,1.7538,1.7574,1.7568,1.7565,1.7573,1.7641,1.7655,1.7617,1.7736,1.7697,1.7706,1.7724,1.7736,1.7745,1.774,1.7579,0,0,0,0,0,1.7385,1.7427,1.7449,1.7513,1.7527,1.7537,1.7561,1.7558,1.7585,1.7597,1.7614,1.7642,1.7683,1.7711,1.775,1.7829,1.7835,1.7865,1.7875,1.7883,1.789,1.7932,1.7946,1.7805,1.7805,1.7805,0,0,1.7421,1.7442,1.7469,1.7522,1.7542,1.7586,1.7546,1.7595,1.7628,1.7604,1.7667,1.7681,1.7712,1.7785,1.7818,1.7799,1.7931,1.7891,1.7897,1.79,1.794,1.7953,1.7965,1.7809,1.7809,1.7808,0,0,1.751,1.753,1.7585,1.7607,1.7638,1.7644,1.7657,1.7685,1.7693,1.7756,1.7739,1.7779,1.7851,1.7873,1.7894,1.7992,1.7977,1.8006,1.8055,1.8097,1.8108,1.8117,1.8151,1.8163,1.8013,1.8014,1.8014,0,1.7551,1.7617,1.7615,1.7665,1.7688,1.7669,1.7725,1.7746,1.7789,1.7806,1.7784,1.7874,1.7894,1.7971,1.7995,1.8013,1.8028,1.8001,1.8106,1.8116,1.8125,1.8157,1.817,1.8017,1.8016,1.8016,1.8016,0,1.7666,1.7712,1.7753,1.7794,1.7822,1.7875,1.7881,1.791,1.7905,1.7913,1.7978,1.8001,1.8044,1.8063,1.8058,1.814,1.8127,1.8106,1.8067,1.8142,1.8172,1.8184,1.8021,1.802,1.8019,1.8018,0,0,1.778,1.782,1.7835,1.7853,1.7887,1.7923,1.7975,1.8017,1.8041,1.8072,1.8115,1.8177,1.8157,1.8181,1.8179,1.8216,1.8291,1.819,1.8191,1.8207,1.838,1.8394,1.8409,1.8282,1.8284,1.8286,1.8377,0,1.787,1.796,1.796,1.8043,1.8085,1.8068,1.8113,1.8139,1.8149,1.8186,1.8197,1.824,1.8212,1.8226,1.8262,1.8274,1.8325,1.8268,1.8321,1.8323,1.8311,1.8425,1.844,1.8525,1.8389,1.8391,1.8393,0,1.7987,1.802,1.8108,1.8135,1.8153,1.8193,1.8231,1.8268,1.8297,1.8301,1.8328,1.8321,1.8373,1.8334,1.8407,1.8367,1.839,1.8399,1.8402,1.8406,1.8361,1.843,1.8552,1.8564,1.8411,1.841,1.8409,0,1.8059,1.8127,1.8188,1.8204,1.8238,1.8267,1.8282,1.8309,1.8334,1.8368,1.8384,1.8424,1.8446,1.8477,1.8481,1.8452,1.8554,1.8515,1.8558,1.8558,1.8579,1.8577,1.8705,1.8596,1.8596,1.8596,1.8595,0,1.8159,1.8212,1.8221,1.8258,1.8317,1.8317,1.8377,1.839,1.8414,1.8453,1.8442,1.8479,1.8482,1.8521,1.8525,1.8584,1.8594,1.8599,1.8599,1.8599,1.8598,1.8612,1.8605,1.8599,1.8598,1.8598,1.8597,0,1.8249,1.8257,1.8322,1.8349,1.8357,1.8399,1.8422,1.8458,1.8467,1.8517,1.8528,1.8542,1.8587,1.8594,1.8647,1.865,1.872,1.8715,1.871,1.8708,1.8751,1.8746,1.889,1.8909,1.879,1.8791,1.8792,0,1.8311,1.8352,1.8383,1.8408,1.8425,1.8467,1.8492,1.8494,1.8521,1.8558,1.8589,1.8632,1.8667,1.8739,1.8754,1.8795,1.8789,1.8837,1.8795,1.8794,1.8788,1.8785,1.8788,1.8845,1.8846,1.8847,1.8848,0,1.842,1.8422,1.8459,1.8497,1.8528,1.8559,1.8588,1.8609,1.8615,1.8646,1.8692,1.8719,1.8773,1.8816,1.8856,1.8872,1.8861,1.8861,1.8873,1.8872,1.8867,1.8869,1.873,1.8857,1.8856,1.8856,1.8855,1.8855,1.8497,1.8532,1.8559,1.8601,1.8623,1.865,1.8684,1.8697,1.8735,1.8779,1.8778,1.8828,1.8856,1.8908,1.8927,1.8966,1.8951,1.8969,1.8973,1.8976,1.898,1.8863,1.8974,1.8974,1.8973,1.8973,1.8973,0,1.8603,1.862,1.8658,1.8699,1.8732,1.8719,1.875,1.8778,1.8822,1.8849,1.8884,1.8936,1.8978,1.8996,1.9037,1.9065,1.9061,1.9076,1.9073,1.9076,1.8992,1.8977,1.9078,1.9078,1.9078,1.9078,1.9078,1.9078,1.8662,1.8721,1.8726,1.8795,1.8812,1.886,1.8879,1.8904,1.8925,1.8984,1.9018,1.903,1.9054,1.9097,1.9134,1.9139,1.9154,1.9171,1.9173,1.9093,1.9082,1.9072,1.9058,1.9174,1.9174,1.9253,1.9254,1.9255]},{"header":{"parameterUnit":"m.s-1","parameterCategory":1,"la1":30.2991,"la2":30.254,"lo1":-89.0895,"lo2":-89.0444,"dy":0.0017,"dx":0.0017,"nx":28,"ny":28,"refTime":"2023-10-16T21:00:00:Z","depth":0,"parameterNumber":3,"parameterNumberName":"V-component_of_WINDS"},"data":[0,0,0,0,0,0,0,0,0,0,0,0,0,0,0,0,0,0,0,0,0,0,0,0,0,0,0,0,0,0,0,0,0,0,0,0,0,0,0,0,0,0,0,0,0,0,0,0,0,0,0,0,0,0,0,0,0,0,1.3886,1.3887,0,1.3902,1.3902,1.3902,1.3873,1.3872,1.3871,1.387,1.3886,1.3887,1.3889,0,0,0,0,0,0,0,0,0,0,0,0,0,1.383,1.3831,1.3886,1.3887,1.3887,1.3902,1.3902,1.3902,1.3873,1.3872,1.3871,1.387,1.3886,1.3887,1.3889,0,0,0,0,0,0,0,0,0,0,0,0,0,1.3851,1.3832,1.3886,1.3874,1.3873,1.3902,1.3902,1.3902,1.3873,1.3872,1.387,1.3869,1.3885,1.3887,1.3889,1.393,0,0,1.3895,1.3896,0,0,0,0,0,0,0,0,1.385,1.3853,1.3876,1.3875,1.3874,1.3884,1.3888,1.3912,1.3874,1.3873,1.387,1.3868,1.3886,1.3888,1.3894,1.3931,1.3932,1.3895,1.3896,1.3897,1.3898,0,0,0,0,0,0,0,1.3848,1.3852,1.3893,1.3876,1.3875,1.3867,1.3869,1.3892,1.3888,1.3873,1.3871,1.3873,1.3886,1.3893,1.3894,1.3932,1.3895,1.3897,1.3898,1.3899,1.3999,1.4,0,0,0,0,0,0,1.3849,1.3851,1.3892,1.3893,1.3858,1.3869,1.3871,1.3882,1.3888,1.3887,1.3875,1.3872,1.389,1.3892,1.3895,1.3941,1.3897,1.3899,1.39,1.3997,1.3999,1.4001,0,0,0,0,0,0,1.3847,1.3853,1.3891,1.3871,1.3876,1.3872,1.3885,1.3883,1.389,1.3889,1.3887,1.3882,1.3889,1.3892,1.3921,1.3941,1.39,1.3902,1.3995,1.3998,1.4,1.4035,0,0,0,0,0,0,1.3846,1.3852,1.3869,1.3872,1.3877,1.3918,1.3886,1.3885,1.3893,1.389,1.3896,1.3895,1.3888,1.3918,1.3923,1.3943,1.3903,1.3994,1.3996,1.3999,1.4032,1.4038,1.4043,0,0,0,0,0,1.3844,1.3879,1.387,1.3875,1.3897,1.3919,1.3922,1.3913,1.3895,1.3911,1.3909,1.3895,1.3938,1.3921,1.3926,1.3947,1.3992,1.3996,1.3999,1.4029,1.4036,1.4043,0,0,0,0,0,0,1.3879,1.3879,1.3869,1.3906,1.3913,1.3914,1.3934,1.3922,1.3934,1.393,1.3918,1.392,1.395,1.3952,1.3933,1.3985,1.3962,1.3967,1.3983,1.399,1.3996,1.3994,1.3905,0,0,0,0,0,1.3891,1.3909,1.3908,1.3941,1.3944,1.3939,1.3948,1.394,1.3946,1.3949,1.395,1.3956,1.397,1.3981,1.3995,1.4032,1.4031,1.4048,1.4054,1.4059,1.4062,1.4079,1.4086,1.4011,1.4011,1.4011,0,0,1.3916,1.3918,1.3931,1.3948,1.3952,1.3969,1.3941,1.3962,1.3974,1.3952,1.3978,1.3979,1.3985,1.4017,1.4031,1.402,1.4083,1.4063,1.4067,1.4068,1.4083,1.409,1.4096,1.4014,1.4013,1.4013,0,0,1.3971,1.3975,1.4001,1.4005,1.4011,1.4006,1.4012,1.4015,1.4014,1.404,1.4023,1.4037,1.4064,1.4067,1.4073,1.4125,1.4111,1.413,1.4159,1.4175,1.4181,1.4186,1.4202,1.4208,1.4133,1.4134,1.4134,0,1.4001,1.4027,1.4016,1.4037,1.4043,1.4023,1.4048,1.4053,1.4063,1.4068,1.4054,1.4084,1.4087,1.4118,1.413,1.4137,1.4142,1.4129,1.4181,1.4186,1.419,1.4205,1.4212,1.4136,1.4135,1.4135,1.4135,0,1.4063,1.4081,1.4101,1.411,1.4119,1.4142,1.4133,1.4144,1.4134,1.413,1.4155,1.4158,1.417,1.4177,1.4169,1.4206,1.4198,1.4183,1.4159,1.42,1.4213,1.4219,1.4139,1.4138,1.4137,1.4137,0,0,1.4141,1.4141,1.4149,1.4151,1.4154,1.4168,1.4188,1.4199,1.4207,1.4215,1.423,1.4251,1.4236,1.4243,1.4234,1.4249,1.4286,1.4231,1.4231,1.424,1.4323,1.4333,1.434,1.4277,1.4278,1.4279,1.4322,0,1.4193,1.4228,1.4217,1.4253,1.4267,1.4247,1.4264,1.4268,1.4264,1.4275,1.4271,1.4285,1.4266,1.4269,1.4282,1.4279,1.4302,1.4275,1.4289,1.429,1.4287,1.4348,1.4359,1.44,1.4328,1.4328,1.4329,0,1.4259,1.4266,1.4303,1.43,1.4306,1.4322,1.4329,1.4341,1.4343,1.434,1.4345,1.4332,1.4351,1.4327,1.4351,1.4333,1.4338,1.4336,1.4338,1.4338,1.4311,1.4348,1.4413,1.4419,1.4338,1.4337,1.4337,0,1.4309,1.4329,1.4352,1.4355,1.4353,1.4364,1.4364,1.4365,1.4371,1.4378,1.4381,1.439,1.4394,1.4401,1.439,1.4374,1.4414,1.4391,1.441,1.441,1.4419,1.4418,1.4485,1.4425,1.4425,1.4425,1.4425,0,1.4367,1.439,1.4374,1.4388,1.4412,1.4398,1.4422,1.4419,1.4419,1.4432,1.4415,1.4426,1.4413,1.4423,1.4415,1.4434,1.4437,1.4433,1.443,1.4433,1.4433,1.4436,1.4432,1.4426,1.4426,1.4426,1.4425,0,1.4427,1.4418,1.4441,1.4437,1.4436,1.4454,1.4449,1.4462,1.4456,1.4471,1.4474,1.4465,1.4475,1.4465,1.4476,1.447,1.4495,1.449,1.4494,1.4492,1.4511,1.4509,1.458,1.4588,1.4525,1.4525,1.4526,0,1.4464,1.4481,1.4477,1.4483,1.4484,1.4495,1.4501,1.4487,1.4493,1.4495,1.4506,1.4515,1.4522,1.4539,1.4533,1.454,1.4533,1.4557,1.4534,1.4535,1.453,1.4529,1.4529,1.4561,1.4562,1.4563,1.4563,0,1.453,1.4523,1.4532,1.4538,1.4544,1.4549,1.4552,1.4558,1.4543,1.4551,1.4561,1.4566,1.4575,1.4583,1.4587,1.4586,1.4572,1.4571,1.4575,1.4578,1.4579,1.4576,1.4505,1.4569,1.4568,1.4568,1.4568,1.4567,1.4578,1.459,1.4588,1.4597,1.4598,1.46,1.461,1.4604,1.4612,1.4618,1.461,1.4621,1.462,1.4624,1.4624,1.4632,1.4622,1.4629,1.4631,1.4632,1.4634,1.4579,1.4633,1.4633,1.4633,1.4633,1.4633,0,1.4641,1.4638,1.4646,1.4649,1.4656,1.4641,1.4643,1.4649,1.4659,1.4659,1.4664,1.4674,1.4681,1.4674,1.468,1.4687,1.468,1.4689,1.4687,1.4686,1.4644,1.4639,1.4694,1.4694,1.4694,1.4694,1.4694,1.4694,1.4674,1.4693,1.4686,1.4703,1.47,1.4711,1.4713,1.4714,1.4713,1.4724,1.473,1.4725,1.4721,1.4726,1.4731,1.4728,1.473,1.474,1.4736,1.4696,1.469,1.4684,1.4679,1.4741,1.4742,1.4777,1.4777,1.4778]}]]